KMKGKIGQ

Guest
Details From KMKG - MUSKEGON CO
To KIGQ - LANSING MUNI
Flight Number -
Tags generated
Created
Modified
Stats Distance 114 nm / 211 km
Max Altitude 9,200 ft / 2,804 m
Waypoints 3
Social Downloads 0
Likes 0
Share VATSIM

Download

Looking for another format? Having issues loading an existing format? Contact us
Advertisement - Login to hide

Notes

Basic altitude profile: - Ascent Rate: 2500ft/min - Ascent Speed: 80kts - Cruise Altitude: 35000ft - Cruise Speed: 100kts - Descent Rate: 1500ft/min - Descent Speed: 80kts Options: - Use NATs: yes - Use PACOTS: yes - Use low airways: yes - Use high airways: yes

Route

KMKG MINCE KIGQ

ID Type Via Altitude Latitude Longitude Leg Dist Tot Dist Heading (true) Name
O KMKG APT - 0 ft / 0 m 43.17002˚ -86.23822˚ - 0 nm - MUSKEGON CO
MINCE FIX - 9,200 ft / 2,804 m 42.16233˚ -87.06419˚ 70 nm 70 nm 211° / 211° -
O KIGQ APT - 0 ft / 0 m 41.53529˚ -87.52969˚ 43 nm 113 nm 209° / 209° LANSING MUNI

Altitude Profile

Advertisement - Login to hide

KMKG

Details ICAO KMKG (MKG)
Name MUSKEGON CO
Region United States
Timezone America/Detroit (UTC-4.0)
Stats Elevation 628 ft / 191 m (AMSL)
Location 43.170017° -86.238221°
Runways 3
Magnetic Variation 5.280° W

METAR

KMKG 220744Z AUTO 05004KT 2SM BR OVC003 12/11 A2999

Decode

TAF

KMKG 220711Z 2207/2306 08006KT 2SM BR OVC003 FM221100 05005KT 3/4SM BR OVC003 FM221400 VRB04KT 3SM BR OVC005 FM221600 32005KT P6SM BKN008 FM221900 31006KT P6SM BKN010 FM222100 30006KT P6SM SCT020 FM230000 31005KT P6SM SCT035

Decode

Departure Runways

ID Width Length Bearing (true) Bearing (mag) Surface Threshold Offset Overrun Length
06 151 ft / 46 m 6,492 ft / 1,979 m 56.28° 61.56° Asphalt 0 ft / 0 m 0 ft / 0 m
14 151 ft / 46 m 4,999 ft / 1,524 m 137.49° 142.77° Asphalt 289 ft / 88 m 0 ft / 0 m
18 98 ft / 30 m 3,153 ft / 961 m 179.66° 184.94° Asphalt 0 ft / 0 m 0 ft / 0 m
24 151 ft / 46 m 6,492 ft / 1,979 m 236.29° 241.57° Asphalt 0 ft / 0 m 0 ft / 0 m
32 151 ft / 46 m 4,999 ft / 1,524 m 317.49° 322.77° Asphalt 0 ft / 0 m 0 ft / 0 m
36 98 ft / 30 m 3,153 ft / 961 m 359.66° 4.94° Asphalt 0 ft / 0 m 0 ft / 0 m

KIGQ

Details ICAO KIGQ (IGQ)
Name LANSING MUNI
Region United States
Timezone America/Chicago (UTC-5.0)
Stats Elevation 620 ft / 189 m (AMSL)
Location 41.535286° -87.529690°
Runways 2
Magnetic Variation 3.985° W

METAR

KIGQ 220735Z AUTO 00000KT 1/4SM FG OVC003 14/14 A2997 RMK AO2 T01380138

Decode

TAF

Not found

Destination Runways

ID Width Length Bearing (true) Bearing (mag) Surface Threshold Offset Overrun Length
09 75 ft / 23 m 3,388 ft / 1,033 m 90.17° 94.16° Asphalt 0 ft / 0 m 0 ft / 0 m
18 75 ft / 23 m 4,008 ft / 1,222 m 180.14° 184.13° Asphalt 350 ft / 107 m 0 ft / 0 m
27 75 ft / 23 m 3,388 ft / 1,033 m 270.18° 274.17° Asphalt 0 ft / 0 m 0 ft / 0 m
36 75 ft / 23 m 4,008 ft / 1,222 m 0.14° 4.13° Asphalt 0 ft / 0 m 0 ft / 0 m